This is the latest recevied weather packets stored in our database for station/object KD7AWQ. If no packets are shown the sender has not sent any weather packets the latest 10 day(s).
| Time | Temp. | Humidity | Pressure | Rain* | Wind** | Luminosity | Snow |
|---|---|---|---|---|---|---|---|
| 1787852115 | 33.33° C | 20% | 1191 hPa | 0 mm | - | 885 W/m² | - |
| 1787851803 | 33.89° C | 20% | 1190.7 hPa | 0 mm | - | 872 W/m² | - |
| 1787851497 | 33.33° C | 20% | 1190.8 hPa | 0 mm | - | 860 W/m² | - |
| 1787851192 | 33.33° C | 20% | 1190.6 hPa | 0 mm | - | 845 W/m² | - |
| 1787850888 | 33.33° C | 21% | 1190.7 hPa | 0 mm | - | 831 W/m² | - |
| 1787850584 | 33.89° C | 20% | 1190.7 hPa | 0 mm | - | 817 W/m² | - |
| 1787850284 | 33.89° C | 20% | 1190.5 hPa | 0 mm | - | 802 W/m² | - |
| 1787849984 | 33.33° C | 20% | 1190.5 hPa | 0 mm | - | 784 W/m² | - |
| 1787849679 | 32.78° C | 21% | 1190.6 hPa | 0 mm | - | 772 W/m² | - |
| 1787849373 | 33.33° C | 20% | 1190.5 hPa | 0 mm | - | 758 W/m² | - |
| 1787849073 | 33.33° C | 21% | 1190.7 hPa | 0 mm | - | 740 W/m² | - |
| 1787848767 | 33.89° C | 20% | 1190.6 hPa | 0 mm | - | 720 W/m² | - |
| 1787848467 | 34.44° C | 20% | 1190.4 hPa | 0 mm | - | 705 W/m² | - |
| 1787848162 | 33.89° C | 20% | 1190.6 hPa | 0 mm | - | 686 W/m² | - |
| 1787847862 | 32.78° C | 21% | 1190.5 hPa | 0 mm | - | 668 W/m² | - |
| 1787847557 | 33.33° C | 20% | 1190.5 hPa | 0 mm | - | 649 W/m² | - |
| 1787847252 | 32.78° C | 20% | 1190.5 hPa | 0 mm | - | 633 W/m² | - |
| 1787846949 | 32.78° C | 21% | 1190.4 hPa | 0 mm | - | 616 W/m² | - |
| 1787846648 | 32.22° C | 21% | 1190.5 hPa | 0 mm | - | 602 W/m² | - |
| 1787846343 | 32.22° C | 22% | 1190.4 hPa | 0 mm | - | 413 W/m² | - |
| 1787846039 | 32.22° C | 22% | 1190.6 hPa | 0 mm | - | 513 W/m² | - |
| 1787845735 | 32.22° C | 22% | 1190.6 hPa | 0 mm | - | 547 W/m² | - |
| 1787845435 | 31.67° C | 22% | 1190.5 hPa | 0 mm | - | 529 W/m² | - |
| 1787845131 | 31.67° C | 22% | 1190.7 hPa | 0 mm | - | 508 W/m² | - |
| 1787844827 | 30.56° C | 23% | 1190.8 hPa | 0 mm | - | 484 W/m² | - |
* Rain latest hour (hover to see other rain measurements)
** Current wind speed in m/s (hover to see current wind gust speed)